User: anonymous   Login
Location: Kitchener
(43.4500°N, 80.5000°W)
Time: 12:24:46
(UTC-04:00)
Language:

Cosmos 1939 Rocket - Orbit

View from above orbital plane
View from above orbital plane
View from above satellite
View from above satellite

Ground track
Ground track

The orbit data is extracted from the following two-line orbital elements,

1 19046U 88032B   14304.11962107  .00001967  00000-0  16088-3 0   350
2 19046 097.6347 356.1990 0037788 001.4589 358.6738 14.99967449428579
Epoch (UTC): 31 October 2014 02:52:15
Eccentricity: 0.0037788
inclination: 97.6347°
perigee height: 541 km
apogee height: 593 km
right ascension of ascending node: 356.1990°
argument of perigee: 1.4589°
revolutions per day: 14.99967449
mean anomaly at epoch: 358.6738°
orbit number at epoch: 42857

The dashed part of the orbit path shows where the satellite is in the earth's shadow,  

DLR